STARLINK-2478 (48135 NORAD) Tracking and Keplerian Element Data

This shows tracking and keplerian element data for the satellite.

Feedback or suggestion? Click here.




ElementValue
Catalog48135
NameSTARLINK-2478
Epoch Orbit1247
Epoch Day170.53309732
Epoch Year2021
RAAN356.6563
Inclination53.0517
Eccentricity0.0001692
Argument of Perigee100.6008
Mean Anonmoly259.5171
Mean Motion15.06403556
Decay Rate3.78E-06
L11 48135U 21027AV 21170.53309732 .00000378 00000-0 44247-4 0 9999
L22 48135 53.0517 356.6563 0001692 100.6008 259.5171 15.06403556 12470

Live tracking and technical data element details for STARLINK-2478 (NORAD 48135). STARLINK-2478 can be tracked NOW for your location showing map with azimuth and elevation plus other details from your city location.

Track the satellite on the map from your city or location and see movement details for azimuth, elevation, latitude, longitude, range, height, and movement on the map or in text.







IsCatalogInMostPopularTable: catalog: 48135, numindb: 34
Update: records affected: 1



GetName: 48135 STARLINK-2478

Hit Count: updated at: Mon, 21 Jun 2021 04:23:46 GMT